Wind_Speed
4 4 3 3 3 5 7 8 10 11 11 14 15 16 17 18 18 19 20 21 21 22 22 22 21 21 22 21 20 20 20 21 21 21 22 22 22 23 22 22 22 22 22 23
3 3 3 4 5 7 9 9 10 11 13 15 17 17 17 18 19 19 20 21 22 23 23 24 24 24 23 21 20 21 21 21 22 23 23 21 21 22 22 22 23 23 22 23
3 4 5 6 6 8 10 11 12 12 14 16 18 18 18 19 19 19 20 22 23 23 23 24 24 23 22 22 21 20 19 19 19 20 20 20 20 20 20 21 21 22 22 22
4 5 7 7 8 10 11 12 14 15 15 17 17 17 16 18 19 20 20 21 23 24 23 24 24 23 23 22 21 21 19 19 19 19 19 18 18 18 18 19 19 21 21 21
5 6 7 8 9 11 12 12 14 14 15 16 16 17 17 18 19 19 20 21 22 23 23 23 23 22 21 21 21 20 19 17 17 17 17 16 16 16 17 18 19 19 20 20
6 6 7 9 10 11 12 13 12 13 14 15 15 16 17 18 19 19 19 21 21 21 21 21 22 22 21 19 17 16 15 16 16 16 16 16 16 16 17 18 18 19 20 20
6 6 8 9 10 11 12 13 12 12 12 12 14 16 17 19 20 20 21 22 20 20 20 21 21 20 20 19 16 15 15 15 15 15 15 15 15 16 17 18 19 20 20 19
6 6 8 9 10 11 12 12 12 11 11 12 14 16 18 19 20 19 20 20 19 19 20 20 20 21 20 18 16 15 15 15 14 14 14 14 15 16 17 18 19 19 19 19
8 8 10 10 10 10 12 11 11 11 12 12 14 15 17 19 19 20 20 19 19 20 20 20 20 20 19 18 17 15 15 15 14 14 14 14 16 17 17 18 18 18 19 19
9 10 10 11 10 9 11 11 11 12 12 13 13 15 18 19 19 19 19 18 18 18 19 18 18 18 18 18 17 16 16 16 14 14 14 15 16 17 18 18 18 18 18 17
10 11 11 11 11 11 11 11 12 12 12 14 14 16 18 19 19 19 19 18 18 18 19 19 18 18 17 17 18 17 17 16 15 15 15 16 17 17 17 17 17 16 17 16
11 12 12 11 11 12 12 11 11 12 12 13 15 16 17 17 18 19 18 17 18 19 19 18 18 17 17 17 18 17 17 17 16 16 16 16 17 17 17 16 16 16 16 15
10 12 12 11 11 11 11 11 11 11 11 12 13 15 16 16 18 18 18 17 18 18 18 18 18 17 17 17 17 17 17 16 16 15 15 16 16 16 16 16 16 15 15 15
12 12 12 11 11 11 11 11 12 11 11 12 13 15 16 17 17 18 17 17 18 18 18 18 17 17 17 17 17 17 17 16 15 14 14 15 15 15 15 15 15 15 15 14
12 12 12 12 12 12 12 12 12 12 12 13 14 15 16 16 17 17 17 17 18 18 18 18 17 17 16 17 17 16 16 16 15 14 15 15 15 15 15 15 16 15 15 14
13 13 13 13 13 12 12 12 12 12 12 13 14 15 16 16 17 17 17 17 17 17 18 17 17 17 17 17 16 16 15 15 15 15 15 15 15 15 15 15 16 16 15 14
14 14 14 14 13 13 12 12 12 12 13 13 14 15 16 16 16 16 16 16 17 17 17 17 17 17 16 16 16 16 16 15 15 15 16 16 16 16 16 15 16 16 15 15
15 15 15 16 15 14 12 13 13 13 14 14 14 15 16 16 16 16 17 17 17 17 17 17 17 17 15 15 16 16 16 15 16 16 16 17 17 17 16 16 17 16 15 15
16 16 16 17 16 15 14 15 14 14 14 15 15 15 15 16 16 17 17 17 17 17 17 18 17 17 16 16 17 17 16 16 17 17 17 17 17 17 17 16 16 16 16 16
17 17 17 17 17 16 15 15 15 15 15 15 16 16 17 17 16 16 17 17 17 17 17 18 18 18 17 17 17 16 17 17 18 18 18 18 17 17 17 17 16 17 17 16
18 17 17 18 17 16 16 16 17 17 16 16 16 17 17 17 17 17 17 17 17 17 17 18 18 18 18 18 17 17 18 18 19 19 18 18 17 17 17 17 17 18 18 18
20 19 18 18 19 18 18 18 17 17 17 18 18 18 18 18 17 17 17 17 17 18 18 18 18 18 18 18 18 18 18 19 19 19 18 18 17 18 18 18 18 19 18 19
21 20 19 19 19 19 19 18 19 19 19 19 20 20 19 19 18 18 18 18 19 19 18 18 19 19 18 18 19 19 19 19 19 18 18 17 17 18 19 19 19 19 19 18
21 20 20 20 20 20 20 20 20 21 21 21 21 21 20 20 19 19 19 19 19 19 19 19 20 20 20 19 19 19 19 19 18 18 18 18 18 18 19 19 18 18 18 18
22 22 21 21 21 21 21 20 21 21 21 21 21 21 21 20 20 20 20 20 20 20 20 20 20 20 20 19 19 19 19 18 18 18 18 18 18 18 18 18 18 17 17 18
24 24 24 23 22 23 22 22 22 22 22 21 21 21 21 21 21 21 21 21 21 21 21 20 20 20 20 19 19 19 19 19 18 18 18 18 17 18 17 17 17 17 18 18
Wind_Direction
226 238 247 247 276 293 308 310 306 310 313 312 311 307 307 308 305 308 312 315 317 320 319 318 317 309 304 301 300 297 292 290 288 288 287 285 284 284 284 284 284 284 282 281
241 255 278 277 284 300 306 299 299 300 304 309 309 307 301 298 302 309 312 315 314 316 315 317 315 310 307 305 299 297 293 292 289 287 287 287 287 284 285 285 284 284 283 281
284 282 283 286 289 295 299 295 296 300 306 307 306 303 300 301 305 308 311 313 312 314 314 314 316 312 310 308 302 299 297 296 294 292 291 289 288 287 287 286 285 285 284 283
280 290 291 289 290 296 296 297 299 300 303 306 303 300 304 306 308 310 312 313 313 314 315 314 316 314 314 312 306 300 298 296 295 295 294 292 290 289 289 290 288 287 286 285
287 295 297 297 297 298 300 300 298 299 298 297 300 300 306 312 315 314 313 315 318 318 317 316 318 320 317 313 308 304 299 294 299 300 298 298 295 292 291 291 290 290 289 288
306 301 296 299 301 298 294 294 296 297 294 289 296 299 306 315 321 322 323 321 320 318 317 319 321 323 322 319 312 310 309 306 307 303 302 299 296 293 291 290 289 290 290 289
305 304 302 299 298 299 293 292 295 296 294 292 297 302 307 316 319 318 321 323 325 321 322 328 329 331 329 327 323 315 317 317 311 307 305 303 301 296 294 292 291 292 290 289
301 301 298 302 302 302 300 295 295 298 302 302 305 308 312 316 319 320 322 326 332 329 329 330 329 329 331 334 332 325 325 322 318 310 307 304 304 300 299 297 295 294 290 290
302 305 307 307 310 307 305 300 299 302 303 306 312 314 314 317 318 321 324 327 330 329 330 329 328 327 330 332 332 330 328 324 319 314 310 308 305 303 305 304 300 296 291 289
308 304 307 310 311 305 299 299 296 299 304 309 315 317 320 323 322 326 328 330 331 332 334 334 333 331 330 332 335 335 332 327 322 319 316 315 314 312 310 308 304 300 296 291
310 311 311 310 309 306 302 296 294 297 301 309 314 317 322 324 327 329 332 332 334 337 337 337 337 336 333 332 336 335 332 329 325 322 320 318 318 317 315 313 308 302 298 296
315 315 314 312 310 309 306 300 297 300 305 310 314 318 324 325 328 330 332 336 337 337 337 337 336 336 335 333 333 332 332 331 329 326 323 321 320 319 318 318 314 311 306 300
311 313 313 313 315 312 311 307 305 306 307 311 314 320 328 329 331 334 336 338 337 337 338 337 337 336 334 333 331 331 329 329 329 327 324 324 323 321 322 322 319 318 314 307
304 307 310 313 315 314 311 309 308 307 306 308 312 318 324 330 333 335 335 337 336 338 338 337 337 336 334 333 331 330 330 330 328 328 327 327 327 326 325 325 323 319 316 309
301 304 306 309 312 312 310 307 302 301 305 307 311 315 321 328 331 333 335 334 335 337 335 334 334 334 334 333 331 332 333 333 332 331 331 331 330 329 328 326 325 322 318 312
300 300 302 304 306 308 308 309 304 300 303 308 312 315 320 324 327 329 329 328 331 334 334 331 329 331 332 333 333 332 332 332 331 332 333 333 332 332 329 326 325 324 321 316
295 299 299 299 300 299 300 305 306 306 304 306 310 315 317 321 325 325 326 326 330 332 332 331 330 329 330 331 334 331 329 330 331 331 332 333 334 334 332 330 329 326 321 318
292 295 295 296 298 300 308 309 311 311 305 302 306 309 311 315 318 321 324 323 325 326 328 329 330 330 329 330 333 335 334 334 334 334 334 334 334 332 331 329 329 328 324 321
289 292 294 296 296 300 305 306 308 308 304 302 303 306 309 313 315 318 322 322 323 323 324 326 327 327 326 325 328 331 334 335 335 335 333 334 334 334 332 329 330 330 326 324
285 290 294 296 295 298 304 305 305 306 306 303 303 305 307 310 311 314 317 318 320 321 322 324 325 326 325 324 326 328 330 330 330 330 330 332 331 331 331 331 331 330 327 325
282 286 289 292 293 297 301 305 306 307 311 307 303 303 304 306 307 309 312 315 318 319 318 320 321 321 323 323 324 324 325 325 326 327 326 327 328 329 328 328 329 327 325 324
279 282 285 289 290 296 301 303 305 308 309 309 307 306 305 305 305 306 307 309 313 315 315 316 317 318 318 319 319 319 319 320 322 323 323 324 325 326 326 326 327 326 325 325
276 280 283 286 290 294 297 299 300 302 305 307 308 307 304 302 302 303 305 307 309 311 314 315 315 315 314 314 316 317 317 318 319 320 320 320 321 322 324 325 326 326 326 326
273 277 278 281 284 289 293 296 296 299 300 303 305 306 302 300 299 301 303 305 306 307 310 313 312 313 312 312 314 314 314 316 318 318 318 318 318 320 323 326 327 326 326 326
270 272 274 276 281 284 288 291 293 295 297 300 302 302 301 300 299 301 302 303 305 307 308 310 311 311 310 311 311 311 312 313 314 317 319 320 321 321 323 325 327 327 327 325
267 269 272 273 275 279 283 285 287 289 292 296 297 298 298 297 297 298 299 300 303 306 308 308 308 310 309 309 309 309 310 312 313 314 316 317 319 320 323 325 326 326 326 325
Height
5868 5869 5868 5868 5868 5867 5866 5865 5863 5862 5860 5858 5856 5853 5850 5847 5843 5841 5840 5837 5834 5832 5830 5827 5824 5821 5819 5816 5814 5811 5809 5808 5807 5806 5805 5805 5805 5804 5803 5801 5800 5798 5797 5796
5867 5867 5867 5866 5865 5865 5864 5863 5861 5860 5858 5855 5852 5849 5847 5844 5841 5839 5836 5833 5830 5828 5826 5823 5819 5816 5813 5811 5808 5806 5804 5802 5801 5800 5799 5799 5798 5798 5796 5795 5794 5793 5791 5790
5864 5865 5864 5864 5863 5863 5862 5860 5858 5857 5855 5853 5849 5847 5844 5841 5838 5836 5834 5831 5828 5825 5822 5819 5815 5811 5808 5805 5803 5800 5799 5797 5795 5794 5793 5793 5792 5791 5790 5789 5787 5786 5785 5784
5862 5862 5862 5861 5860 5860 5859 5858 5856 5854 5852 5849 5847 5843 5841 5838 5835 5833 5831 5828 5825 5821 5818 5814 5810 5806 5803 5800 5797 5795 5793 5792 5790 5789 5788 5787 5787 5785 5785 5783 5782 5780 5779 5778
5860 5860 5859 5858 5858 5857 5856 5855 5853 5851 5849 5847 5844 5841 5838 5835 5832 5830 5828 5824 5821 5817 5814 5810 5805 5801 5798 5795 5792 5790 5787 5785 5785 5784 5783 5782 5782 5781 5780 5778 5776 5775 5773 5772
5858 5857 5857 5856 5855 5854 5853 5852 5851 5848 5846 5844 5842 5839 5835 5832 5830 5827 5824 5821 5817 5814 5810 5806 5802 5799 5795 5790 5788 5785 5783 5781 5780 5779 5778 5778 5777 5776 5775 5773 5771 5770 5768 5766
5856 5856 5855 5854 5853 5852 5850 5849 5848 5845 5842 5840 5838 5835 5833 5829 5827 5824 5821 5818 5814 5810 5807 5803 5798 5796 5792 5788 5784 5782 5779 5778 5777 5775 5774 5773 5773 5771 5770 5768 5766 5764 5762 5760
5854 5854 5853 5851 5850 5849 5847 5846 5845 5842 5840 5838 5835 5832 5830 5827 5824 5821 5818 5815 5811 5808 5804 5800 5796 5793 5789 5785 5782 5779 5777 5775 5773 5772 5771 5770 5768 5767 5764 5762 5760 5758 5756 5755
5852 5852 5850 5848 5847 5846 5844 5842 5841 5839 5837 5835 5833 5830 5827 5824 5822 5819 5815 5812 5809 5805 5802 5798 5794 5791 5787 5783 5780 5777 5775 5772 5770 5769 5767 5766 5764 5762 5759 5757 5755 5753 5751 5749
5850 5849 5848 5846 5845 5844 5842 5840 5839 5837 5834 5832 5831 5828 5825 5822 5819 5816 5812 5810 5807 5803 5799 5796 5792 5788 5785 5781 5778 5774 5772 5770 5768 5766 5763 5761 5759 5757 5754 5752 5750 5747 5745 5744
5847 5847 5845 5844 5842 5840 5839 5838 5835 5833 5831 5830 5827 5827 5822 5819 5816 5813 5810 5807 5804 5800 5797 5793 5790 5786 5783 5779 5776 5773 5771 5768 5765 5762 5760 5758 5755 5753 5750 5748 5745 5743 5740 5738
5845 5844 5843 5841 5839 5837 5835 5834 5833 5831 5829 5827 5824 5825 5819 5816 5814 5811 5808 5804 5801 5798 5794 5791 5788 5784 5781 5778 5775 5772 5769 5766 5763 5760 5757 5755 5752 5749 5746 5744 5741 5738 5736 5734
5843 5842 5840 5839 5838 5836 5833 5831 5829 5828 5826 5824 5822 5822 5817 5814 5811 5808 5805 5802 5799 5796 5793 5789 5786 5782 5779 5776 5773 5770 5767 5764 5761 5758 5755 5752 5749 5746 5743 5740 5737 5734 5732 5729
5841 5839 5838 5837 5834 5832 5830 5828 5826 5825 5823 5821 5820 5818 5814 5812 5809 5806 5803 5800 5797 5794 5790 5787 5784 5781 5777 5774 5771 5768 5765 5761 5758 5755 5753 5749 5746 5742 5740 5737 5734 5731 5728 5726
5838 5836 5834 5833 5831 5829 5827 5826 5824 5822 5820 5819 5817 5814 5812 5809 5807 5804 5801 5798 5795 5792 5789 5785 5782 5779 5775 5772 5768 5765 5762 5759 5756 5753 5750 5747 5743 5740 5737 5734 5731 5727 5725 5723
5834 5833 5832 5830 5828 5826 5825 5823 5821 5819 5817 5815 5814 5812 5809 5807 5804 5801 5799 5796 5793 5789 5786 5783 5780 5776 5773 5770 5766 5763 5760 5757 5754 5751 5748 5744 5741 5738 5734 5731 5728 5725 5722 5720
5831 5830 5829 5827 5825 5824 5822 5820 5818 5816 5814 5813 5811 5810 5806 5804 5802 5799 5796 5793 5790 5788 5784 5781 5777 5774 5771 5768 5765 5761 5758 5755 5752 5749 5745 5742 5739 5735 5732 5729 5725 5722 5719 5717
5827 5826 5825 5823 5823 5820 5821 5817 5815 5812 5810 5809 5807 5806 5804 5802 5799 5796 5794 5791 5788 5785 5782 5779 5775 5771 5768 5766 5763 5759 5755 5753 5749 5746 5743 5740 5736 5733 5729 5726 5723 5720 5717 5714
5823 5822 5821 5819 5818 5817 5816 5813 5811 5809 5807 5805 5804 5802 5800 5798 5796 5793 5790 5788 5785 5782 5779 5776 5772 5769 5766 5763 5760 5756 5753 5750 5747 5744 5740 5737 5733 5730 5727 5724 5720 5717 5714 5711
5819 5818 5817 5815 5814 5813 5813 5810 5807 5807 5804 5802 5800 5799 5797 5794 5792 5791 5787 5784 5782 5779 5776 5772 5769 5766 5763 5760 5757 5754 5751 5747 5744 5741 5738 5734 5730 5727 5724 5721 5718 5714 5711 5707
5814 5813 5812 5811 5809 5808 5808 5806 5804 5803 5802 5799 5796 5794 5792 5790 5788 5786 5783 5781 5778 5775 5772 5769 5766 5763 5760 5757 5754 5751 5748 5745 5741 5738 5734 5731 5728 5724 5721 5718 5715 5711 5708 5704
5808 5807 5807 5805 5804 5806 5803 5801 5800 5798 5796 5794 5792 5790 5788 5786 5783 5781 5779 5776 5774 5771 5769 5765 5763 5760 5757 5754 5751 5748 5744 5741 5738 5734 5731 5727 5724 5722 5718 5715 5712 5708 5704 5701
5801 5802 5801 5801 5801 5799 5797 5796 5794 5793 5791 5789 5787 5785 5782 5780 5779 5776 5774 5772 5769 5767 5764 5761 5759 5756 5753 5750 5747 5743 5740 5737 5734 5730 5727 5724 5721 5719 5715 5712 5708 5704 5701 5697
5796 5795 5795 5794 5793 5793 5792 5791 5789 5788 5786 5784 5782 5780 5777 5775 5773 5771 5769 5767 5765 5762 5759 5757 5754 5751 5748 5745 5742 5739 5736 5732 5730 5727 5723 5721 5718 5715 5711 5708 5704 5701 5697 5694
5789 5789 5788 5788 5788 5787 5786 5785 5784 5782 5780 5779 5776 5774 5772 5770 5768 5766 5764 5761 5759 5757 5754 5752 5749 5746 5744 5741 5738 5734 5731 5728 5725 5723 5720 5717 5714 5711 5707 5704 5701 5697 5694 5690
5781 5782 5782 5782 5782 5781 5780 5779 5777 5776 5774 5772 5770 5768 5766 5764 5762 5760 5758 5756 5754 5751 5749 5747 5744 5741 5739 5736 5733 5730 5727 5724 5721 5718 5716 5713 5710 5707 5703 5700 5697 5693 5690 5686